{"data":{"norad_id":67476,"epoch":"2026-09-20T08:34:27.130944Z","epoch_age_seconds":108951,"freshness":"FRESH","line1":"1 67476U 26010A   26263.35725846  .00000000  00000+0  88390-4 0  9999","line2":"2 67476  44.9838  18.2801 0010389  57.9429 302.2411 13.99190192 34728","mean_motion":13.99190192,"eccentricity":0.0010389,"inclination_deg":44.9838,"raan_deg":18.2801,"arg_perigee_deg":57.9429,"mean_anomaly_deg":302.2411,"bstar":8.839e-5,"rev_number":3472,"period_min":102.9166733896,"perigee_km":889.04299133215,"apogee_km":904.15844135918,"semimajor_km":7274.7377163457,"source":"CELESTRAK","updated_at":"2026-09-21T09:00:16.668482Z"}}